Temperature
13 13 13 13 13 13 13 13 13 13 14 14 14 14 14 14 14 14 14 14 14 14 14 14 14 14 14 14 14 14 14 15 14 14 14 14 14 14 14 14 14 14 14
12 11 12 11 12 12 12 12 12 13 13 13 13 13 13 13 13 13 13 13 13 13 13 14 13 13 14 14 14 14 14 15 14 14 14 14 14 13 13 13 13 13 13
11 11 11 11 10 10 11 11 11 11 12 12 12 12 12 13 13 13 13 13 13 13 13 13 13 13 13 14 14 14 14 14 14 14 13 13 13 13 13 12 12 12 12
11 10 10 10 10 10 10 10 10 10 10 11 11 11 12 12 12 12 13 13 13 13 13 13 13 13 13 13 13 14 14 14 14 13 13 13 12 12 12 12 12 12 12
11 11 10 10 10 10 10 10 10 10 10 10 10 10 11 11 11 12 12 12 12 12 12 12 12 12 13 13 13 13 13 13 13 13 12 12 12 12 12 12 12 11 11
11 11 11 10 10 10 10 10 10 10 9 9 9 10 10 10 11 11 11 12 12 12 12 12 12 12 12 12 13 13 13 13 13 13 12 12 12 12 12 12 11 11 11
11 10 10 10 10 10 10 10 10 9 9 9 9 9 10 10 10 10 11 11 12 12 12 12 12 12 12 12 12 12 12 12 12 13 12 12 12 12 11 11 11 11 11
10 10 10 10 10 10 10 10 9 9 9 9 9 9 9 9 10 10 10 11 11 11 11 11 11 11 11 11 11 11 11 11 12 12 12 11 11 11 11 11 11 11 11
10 10 10 10 10 9 9 9 9 9 9 9 9 9 9 9 9 10 10 10 10 11 11 11 11 11 11 11 11 11 11 11 11 11 11 11 11 11 11 11 11 11 11
10 10 9 9 9 9 9 9 9 8 8 8 8 9 9 9 9 9 9 10 10 10 10 11 11 11 11 11 11 11 11 10 11 11 11 11 11 11 11 11 11 11 11
9 9 9 9 9 9 8 8 8 8 8 8 8 8 8 9 9 9 9 9 10 10 10 10 10 10 10 10 10 11 11 10 10 10 10 10 10 11 11 11 11 11 11
8 8 8 8 8 8 8 8 8 8 8 8 8 8 8 9 9 9 9 9 9 9 9 10 10 10 10 10 10 10 10 10 10 10 10 10 10 10 10 11 11 11 11
7 7 7 7 7 7 7 7 8 8 8 8 8 8 8 8 8 8 9 9 9 9 9 9 9 10 10 10 10 10 10 10 10 10 10 10 10 10 10 10 10 11 11
6 6 6 6 6 6 7 7 7 7 8 8 8 8 8 8 8 8 8 8 8 8 8 9 9 9 10 10 10 10 10 10 11 11 10 10 10 9 9 10 10 10 10
5 5 5 6 6 6 6 6 7 7 7 8 8 8 8 8 8 8 8 8 8 8 8 8 9 9 9 10 10 10 10 11 11 11 10 10 10 9 9 9 9 9 9
5 5 5 5 5 5 6 6 6 7 7 7 7 8 8 8 8 8 7 7 7 7 8 8 8 9 9 10 10 10 10 11 11 10 10 10 10 10 10 10 10 10 10
4 4 4 5 5 5 5 5 6 6 7 7 7 7 7 7 7 7 7 7 7 7 7 8 9 9 10 10 10 10 11 11 11 10 10 10 10 10 10 10 11 10 10
4 4 4 4 5 5 5 5 5 6 6 7 7 7 7 7 7 7 7 7 7 7 8 9 9 10 11 11 11 11 11 11 11 11 11 11 10 10 11 11 11 10 10
4 4 5 5 5 5 5 5 5 6 6 6 7 7 7 7 6 6 6 7 7 8 8 9 10 11 11 11 11 11 11 11 11 11 11 11 11 11 11 11 11 11 10
5 5 5 5 5 5 5 5 5 6 6 6 6 7 7 6 6 6 6 7 7 8 9 10 11 11 12 12 12 12 11 11 11 11 11 11 11 11 11 11 11 11 11
5 5 5 5 5 5 5 5 5 6 6 6 6 7 7 7 7 7 7 7 8 9 10 11 11 12 12 12 12 12 11 11 11 11 11 11 11 11 11 11 11 11 11
5 5 5 5 5 5 5 5 6 6 6 6 6 6 6 6 6 7 7 8 8 9 10 11 12 12 12 12 12 12 11 11 11 11 11 11 11 11 11 11 11 11 11
5 5 5 5 5 5 5 6 6 6 6 6 6 6 6 6 7 7 7 8 9 10 10 11 12 12 12 12 12 12 12 11 11 11 11 11 11 11 11 11 11 11 11
5 6 6 6 6 6 6 6 6 6 6 6 6 6 7 7 7 7 8 9 9 10 11 11 12 12 12 12 12 12 12 12 11 11 11 11 11 11 11 11 11 11 11
6 6 6 6 6 6 6 6 6 6 6 6 6 7 7 7 7 8 8 9 10 10 11 11 12 12 12 12 12 12 12 12 12 11 11 11 11 11 11 11 11 11 11
6 6 6 6 6 6 6 7 7 7 7 7 7 7 7 8 8 8 9 10 10 11 11 12 12 12 12 12 12 12 12 12 12 11 11 11 11 11 11 11 11 11 11
Wind_Speed
6 6 6 6 7 7 7 7 8 9 9 9 9 9 9 9 8 7 7 8 8 8 8 8 8 8 7 7 6 6 7 6 5 2 3 5 7 9 9 10 11 11 11
7 6 7 7 7 7 8 8 8 9 10 10 10 10 10 10 9 8 8 8 7 8 7 7 8 7 7 6 5 6 6 6 6 6 4 5 7 9 10 10 9 10 11
8 8 8 8 8 8 9 8 8 9 9 10 11 10 10 10 10 9 8 8 7 6 6 6 7 7 6 5 5 5 5 5 6 7 6 5 6 8 9 10 11 9 10
9 10 10 10 10 10 11 10 10 10 9 9 10 10 10 11 11 10 8 7 6 5 4 4 5 5 5 4 3 3 3 5 7 8 8 7 6 7 8 9 9 7 8
10 11 11 11 11 11 11 11 11 11 12 9 9 10 10 10 11 9 7 8 5 4 3 2 2 3 4 3 2 1 3 5 7 8 9 8 7 7 7 6 8 7 7
10 11 10 11 11 11 12 12 11 11 11 10 9 9 10 11 9 8 7 7 5 4 3 1 1 1 2 4 5 4 4 7 9 8 8 9 8 7 5 7 7 8 5
10 11 10 11 11 11 13 12 11 11 11 10 10 9 10 10 10 8 9 7 6 5 3 3 2 2 2 4 7 9 9 9 8 8 10 9 8 7 6 6 5 5 5
11 11 11 11 11 10 10 10 10 9 10 9 10 10 9 10 9 8 8 8 7 5 4 5 4 4 4 5 7 9 9 8 8 8 9 8 8 6 5 7 7 6 5
13 12 11 11 11 10 10 9 9 9 9 9 10 10 10 9 7 8 7 5 5 5 5 6 7 7 7 9 10 11 11 10 13 14 13 13 13 10 7 6 6 7 6
13 12 11 10 11 11 10 10 10 9 9 10 11 10 9 8 6 7 7 4 4 4 5 6 9 10 10 9 9 11 11 9 10 11 10 11 9 8 8 5 3 5 6
13 12 11 11 11 11 11 10 10 10 10 10 10 10 9 8 6 8 9 5 4 3 4 6 8 14 12 10 9 9 12 11 10 9 8 7 7 6 7 7 6 4 6
13 13 12 11 14 15 10 9 9 9 10 10 10 11 9 6 6 7 9 8 4 3 3 4 8 15 13 11 9 13 15 11 8 8 7 6 6 7 8 8 8 9 9
14 14 13 14 12 12 11 11 11 10 11 11 9 9 7 5 4 7 8 6 5 3 2 3 9 14 13 10 13 15 11 6 6 7 7 7 7 8 7 7 7 8 7
15 14 13 14 14 12 10 11 11 11 10 8 8 7 6 4 4 4 4 4 4 3 3 7 12 13 10 11 11 9 6 5 6 7 9 9 8 7 6 6 6 6 7
15 15 14 13 13 12 11 10 11 10 9 8 7 5 4 3 4 6 4 3 3 4 5 6 8 8 8 8 8 7 5 5 6 9 10 9 7 6 6 6 6 6 6
14 14 12 11 10 10 10 11 13 13 12 11 9 6 3 5 10 9 7 5 4 6 7 8 10 10 10 10 9 7 6 6 7 9 8 7 7 6 6 5 5 6 7
15 14 11 11 10 10 10 10 10 9 11 11 11 10 8 10 11 10 8 5 5 8 6 8 9 10 10 10 9 8 7 7 7 8 7 7 6 6 6 5 5 6 6
14 15 13 11 10 10 10 10 9 9 7 6 8 11 12 13 12 11 9 6 4 6 7 8 9 9 9 9 9 8 8 8 7 7 7 7 7 6 6 6 6 6 6
13 11 10 10 10 10 9 10 9 9 7 6 5 7 10 11 10 9 9 5 8 9 9 8 8 8 8 8 8 8 9 8 7 7 7 7 7 6 6 6 6 7 6
11 14 12 9 8 8 9 9 8 7 7 7 7 7 8 9 7 7 6 7 8 9 9 7 7 7 8 8 8 9 10 8 8 7 7 6 6 6 6 8 7 5 4
9 9 11 9 7 7 8 8 7 7 7 7 6 8 13 11 10 10 9 9 9 10 8 6 6 7 8 8 8 9 11 9 7 7 8 6 6 6 6 7 7 6 5
7 6 5 6 6 6 6 6 6 6 7 7 6 8 14 10 10 10 10 10 10 9 7 6 6 7 8 8 8 9 10 10 8 8 9 7 6 6 7 7 7 6 5
6 5 4 4 4 5 5 5 5 6 6 7 8 9 10 9 9 10 11 10 9 8 6 6 6 7 8 8 7 8 10 10 9 9 9 8 7 6 6 6 6 6 6
6 4 3 3 4 4 5 5 6 6 6 7 8 10 10 9 10 11 11 10 9 8 6 6 7 8 11 10 7 7 7 8 9 9 10 9 8 6 6 6 6 6 5
5 3 2 1 2 3 4 5 5 6 6 7 8 9 9 9 10 11 10 10 10 8 7 6 6 8 13 13 10 7 11 13 11 10 7 7 8 7 7 7 5 5 5
4 3 1 0 1 2 3 4 5 6 7 8 8 9 9 10 11 11 10 9 9 7 7 6 7 10 12 11 11 13 14 14 12 10 7 6 6 6 6 5 6 6 6
Wind_Direction
343 343 339 339 341 336 332 333 332 325 317 308 302 297 290 282 275 272 277 282 289 294 294 293 291 284 275 268 260 246 236 224 222 190 147 137 133 125 118 119 116 104 99
324 323 322 323 322 317 316 318 319 317 315 308 299 293 290 286 280 275 277 285 291 297 299 301 301 300 292 278 262 248 235 216 189 165 148 143 133 131 130 126 118 110 106
300 298 297 295 295 294 293 295 297 299 302 306 305 295 291 289 284 277 272 274 281 288 300 304 304 305 299 291 272 250 228 202 169 153 144 133 128 131 126 119 115 115 113
273 272 271 270 269 270 272 274 276 279 284 289 295 298 295 291 284 277 273 271 272 279 291 300 306 310 305 296 276 246 188 163 151 143 136 132 131 132 128 126 126 129 127
267 265 262 262 262 261 263 264 265 268 274 277 285 294 295 290 284 287 278 272 267 271 281 295 329 349 356 339 284 201 158 145 141 140 138 133 133 136 134 135 134 131 122
272 272 270 266 265 263 261 260 260 261 264 266 271 282 288 289 307 311 294 284 278 263 259 233 176 96 62 60 63 84 131 144 144 140 140 142 139 134 127 138 140 139 137
281 281 278 275 271 266 269 267 262 263 267 270 272 276 278 282 279 271 272 274 266 255 232 196 195 149 143 113 92 84 82 99 123 137 136 137 136 139 136 134 141 138 128
283 283 282 281 281 278 275 273 272 273 275 277 277 276 277 282 274 254 263 268 263 250 218 183 163 152 150 132 112 94 81 78 99 113 115 112 118 129 137 137 131 116 105
284 281 281 280 281 280 280 279 280 278 279 276 275 269 271 274 263 244 241 259 256 238 209 180 163 154 143 132 120 109 99 88 83 95 104 107 104 102 112 127 136 130 126
283 279 278 276 277 277 276 277 279 277 275 274 270 267 268 271 252 227 221 239 250 236 201 175 162 149 145 138 132 126 119 116 114 109 107 110 111 104 94 98 128 143 135
283 279 275 273 272 271 267 266 267 270 273 275 275 272 265 263 244 224 213 221 229 232 195 175 158 148 147 142 137 131 131 130 125 123 119 117 113 101 83 65 58 107 121
290 287 283 279 279 280 275 272 269 267 269 268 265 265 262 252 233 213 206 208 215 215 203 176 157 153 148 144 138 140 143 140 135 133 129 125 114 98 88 81 74 77 87
290 286 283 283 280 277 274 272 270 263 260 263 261 260 254 233 189 183 189 187 195 194 213 181 160 156 146 138 144 150 155 154 146 142 133 120 109 108 105 100 92 85 77
286 285 283 280 276 272 267 266 264 262 260 258 258 259 252 220 185 175 179 169 177 172 178 161 160 161 154 144 152 163 175 171 151 131 119 117 120 130 134 132 121 109 96
286 284 281 276 274 271 266 260 258 257 253 250 256 251 235 216 173 158 168 161 166 161 148 154 164 165 160 155 164 178 182 162 134 123 125 135 146 154 152 150 144 137 128
285 282 277 272 270 269 267 269 256 248 250 239 230 230 214 157 147 151 153 140 134 144 153 171 173 172 166 165 171 175 173 154 137 134 142 154 157 151 144 149 154 145 142
279 277 273 269 265 263 260 260 264 254 239 229 220 211 197 161 155 160 160 150 150 156 178 184 177 176 170 169 171 170 163 148 142 145 150 150 143 140 147 156 145 128 124
279 275 269 263 259 256 252 250 251 251 243 230 219 207 188 169 164 162 152 142 162 178 199 194 185 181 172 168 169 164 153 145 147 149 149 145 145 149 152 150 137 133 133
281 272 265 260 253 251 248 246 245 245 239 229 206 190 181 165 157 154 156 179 186 193 206 206 190 179 170 164 161 153 146 148 153 146 145 146 150 151 152 143 126 130 143
277 269 264 257 248 245 241 239 236 232 225 218 207 184 162 161 169 169 184 190 197 202 207 208 187 171 163 156 149 146 146 149 152 147 143 150 152 152 147 137 139 156 164
282 271 262 254 243 239 236 233 224 214 212 209 203 177 165 173 177 179 184 193 206 207 205 203 181 170 156 148 149 149 149 152 156 154 151 158 156 152 150 149 157 170 157
290 271 256 250 243 233 228 220 209 206 205 201 174 160 166 172 174 178 186 196 207 210 200 194 182 170 156 155 155 154 154 158 165 159 155 162 157 156 158 160 164 167 160
302 287 270 251 230 213 214 208 196 197 197 186 166 161 173 177 177 179 189 196 200 206 195 191 182 168 155 153 155 160 163 163 164 159 158 161 163 165 166 162 165 170 173
312 296 275 238 214 202 196 190 190 188 181 170 164 168 174 176 177 181 185 186 191 196 192 188 183 168 155 152 157 169 165 158 159 160 162 165 167 169 168 168 178 183 181
320 325 303 247 197 180 182 183 177 173 168 162 161 164 166 171 174 177 180 182 186 189 191 186 175 165 157 158 166 160 143 143 154 161 162 169 173 173 175 179 187 192 197
323 333 346 81 138 156 161 160 159 160 157 156 159 161 167 170 170 172 178 182 182 185 188 183 175 162 156 165 157 139 137 138 139 146 165 176 181 184 184 194 202 207 214
Height
1486 1484 1483 1481 1479 1479 1478 1476 1475 1474 1473 1471 1470 1469 1468 1467 1466 1465 1463 1461 1460 1457 1455 1453 1451 1449 1447 1446 1445 1445 1446 1447 1448 1450 1453 1455 1457 1459 1461 1463 1465 1467 1469
1483 1481 1479 1477 1475 1473 1472 1470 1469 1468 1466 1465 1464 1463 1462 1461 1460 1459 1458 1456 1455 1453 1451 1448 1446 1444 1442 1441 1440 1439 1440 1441 1443 1446 1449 1451 1454 1457 1459 1462 1464 1466 1468
1478 1476 1474 1472 1470 1467 1465 1464 1462 1461 1459 1458 1457 1456 1455 1454 1453 1453 1452 1451 1449 1448 1446 1444 1442 1440 1438 1436 1435 1435 1435 1437 1439 1442 1445 1449 1452 1455 1458 1461 1464 1466 1468
1473 1471 1468 1466 1464 1461 1459 1457 1456 1454 1452 1451 1450 1449 1448 1447 1447 1446 1446 1445 1444 1443 1441 1440 1438 1436 1434 1433 1432 1431 1431 1433 1436 1439 1443 1447 1451 1454 1457 1460 1463 1466 1469
1468 1466 1463 1461 1459 1456 1454 1452 1450 1448 1446 1444 1443 1442 1441 1441 1441 1440 1439 1439 1438 1438 1437 1436 1434 1433 1431 1430 1429 1429 1429 1431 1433 1436 1440 1445 1449 1453 1456 1460 1463 1467 1470
1463 1460 1458 1456 1453 1451 1448 1446 1444 1442 1440 1439 1437 1436 1435 1435 1434 1433 1433 1433 1433 1433 1432 1432 1431 1430 1429 1428 1427 1427 1428 1430 1432 1435 1439 1443 1447 1452 1456 1460 1463 1466 1470
1457 1454 1452 1449 1447 1444 1442 1440 1438 1437 1435 1434 1432 1431 1430 1428 1427 1427 1427 1427 1427 1428 1428 1428 1428 1427 1427 1426 1426 1426 1427 1430 1432 1435 1438 1442 1446 1451 1455 1460 1463 1467 1469
1449 1447 1445 1443 1440 1438 1436 1434 1432 1431 1430 1428 1427 1426 1424 1422 1422 1421 1420 1421 1422 1423 1424 1424 1425 1425 1425 1425 1425 1426 1427 1429 1432 1435 1438 1443 1448 1452 1456 1460 1464 1468 1471
1441 1439 1437 1435 1433 1431 1429 1427 1426 1424 1423 1421 1420 1419 1418 1417 1416 1415 1415 1415 1416 1418 1419 1421 1422 1423 1424 1425 1425 1426 1428 1430 1434 1437 1441 1445 1449 1454 1457 1461 1465 1468 1471
1433 1431 1429 1427 1425 1423 1421 1420 1418 1417 1416 1415 1414 1413 1412 1411 1411 1410 1410 1410 1411 1413 1416 1417 1419 1421 1423 1424 1425 1426 1428 1431 1435 1439 1443 1447 1451 1455 1459 1462 1465 1468 1471
1424 1422 1420 1418 1416 1414 1413 1411 1411 1410 1409 1408 1407 1406 1406 1406 1405 1405 1404 1405 1407 1408 1411 1414 1416 1419 1421 1424 1426 1427 1429 1433 1436 1440 1444 1448 1452 1456 1459 1462 1465 1468 1471
1415 1412 1410 1408 1407 1406 1404 1403 1402 1402 1401 1401 1400 1399 1399 1399 1399 1399 1399 1400 1402 1404 1407 1411 1414 1417 1420 1423 1426 1428 1431 1435 1439 1442 1446 1449 1453 1456 1459 1463 1466 1468 1471
1404 1402 1400 1398 1397 1396 1395 1394 1394 1394 1394 1394 1394 1393 1393 1394 1394 1394 1395 1396 1398 1400 1403 1407 1411 1416 1420 1423 1426 1429 1433 1437 1441 1444 1448 1451 1454 1457 1460 1463 1466 1469 1471
1393 1390 1389 1387 1386 1386 1385 1385 1386 1386 1386 1387 1388 1388 1388 1389 1390 1390 1391 1392 1394 1396 1400 1404 1410 1415 1419 1423 1427 1430 1434 1438 1442 1445 1448 1451 1455 1458 1461 1463 1466 1469 1471
1382 1380 1378 1377 1376 1375 1375 1376 1376 1377 1379 1380 1382 1383 1384 1385 1386 1387 1387 1389 1391 1393 1397 1401 1407 1413 1418 1422 1426 1430 1434 1438 1442 1445 1448 1452 1456 1459 1462 1465 1467 1470 1472
1371 1369 1368 1367 1366 1366 1366 1367 1368 1369 1371 1373 1375 1378 1379 1381 1382 1383 1385 1387 1389 1391 1395 1400 1406 1411 1416 1421 1425 1430 1434 1438 1442 1445 1449 1453 1456 1460 1463 1466 1469 1472 1474
1361 1359 1358 1357 1357 1357 1358 1359 1360 1362 1363 1366 1368 1371 1374 1376 1378 1380 1382 1384 1387 1390 1394 1400 1405 1411 1416 1420 1425 1429 1434 1438 1442 1446 1449 1453 1457 1460 1464 1467 1470 1472 1475
1351 1349 1348 1348 1348 1349 1350 1352 1353 1355 1357 1358 1362 1365 1368 1371 1374 1377 1379 1381 1385 1389 1394 1399 1405 1410 1415 1420 1424 1429 1433 1437 1442 1446 1450 1454 1457 1461 1464 1467 1470 1473 1475
1341 1340 1339 1339 1340 1341 1342 1344 1346 1349 1351 1353 1356 1359 1363 1366 1370 1373 1376 1379 1383 1388 1393 1399 1404 1409 1414 1419 1424 1428 1432 1436 1441 1445 1449 1453 1457 1461 1464 1467 1470 1472 1475
1333 1332 1332 1332 1333 1334 1336 1338 1341 1343 1346 1349 1352 1355 1358 1362 1365 1369 1373 1377 1382 1387 1392 1398 1403 1408 1413 1418 1423 1427 1431 1436 1441 1445 1449 1453 1457 1461 1464 1466 1469 1472 1474
1328 1326 1326 1327 1328 1329 1331 1333 1336 1338 1341 1345 1347 1350 1354 1358 1362 1367 1371 1376 1381 1386 1391 1397 1403 1408 1413 1417 1422 1427 1431 1435 1440 1444 1448 1453 1457 1460 1463 1466 1468 1471 1474
1324 1323 1322 1323 1324 1325 1327 1329 1332 1335 1338 1341 1344 1348 1352 1357 1361 1365 1370 1375 1380 1386 1392 1397 1402 1408 1412 1417 1422 1426 1430 1435 1439 1444 1448 1452 1456 1459 1463 1465 1468 1470 1473
1322 1321 1321 1321 1321 1323 1325 1327 1330 1333 1336 1339 1342 1346 1351 1355 1360 1365 1369 1375 1380 1386 1392 1397 1403 1408 1413 1417 1422 1426 1430 1434 1439 1443 1447 1451 1455 1458 1461 1464 1467 1469 1471
1322 1321 1320 1320 1321 1322 1323 1326 1328 1331 1334 1338 1341 1345 1350 1354 1359 1364 1369 1375 1381 1387 1393 1398 1403 1408 1412 1417 1422 1426 1430 1434 1438 1442 1446 1450 1454 1457 1460 1463 1465 1467 1469
1322 1321 1320 1320 1320 1321 1323 1325 1328 1331 1334 1338 1341 1345 1350 1354 1359 1364 1370 1376 1382 1388 1394 1399 1404 1408 1412 1417 1422 1426 1430 1433 1438 1441 1445 1449 1453 1456 1458 1461 1463 1465 1467
1324 1322 1322 1321 1322 1323 1324 1326 1328 1331 1334 1338 1342 1346 1351 1355 1361 1366 1372 1378 1384 1389 1395 1400 1404 1408 1413 1417 1422 1425 1429 1433 1437 1441 1444 1448 1451 1454 1456 1459 1461 1462 1464